Bedford, MA

10:42 PM EDT on March 24, 2017 (GMT -0400)
Hanscom

Weather History for KBED - February, 2012

Change the Weather History Date:

Saturday, February 11, 2012

  Actual Average Record
Temperature  
Mean Temperature 34 °F -  
Max Temperature 39 °F 36 °F 63 °F (1981)
Min Temperature 26 °F 16 °F -10 °F (1962)
Degree Days  
Heating Degree Days 32    
Moisture  
Dew Point 27 °F    
Average Humidity 77    
Maximum Humidity 100    
Minimum Humidity 51    
Precipitation  
Precipitation 0.00 in - - ()
Sea Level Pressure  
Sea Level Pressure 29.74 in    
Wind  
Wind Speed 7 mph (NW)    
Max Wind Speed 17 mph    
Max Gust Speed 25 mph    
Visibility 8 miles    
Events Rain , Snow    
Averages and records for this station are not official NWS values.
T = Trace of Precipitation, MM = Missing Value Source: NWS Daily Summary

Daily Weather History Graph

Daily Weather History Graph

Search for Another Location

Airport or City:

Trip Planner

Search our weather history database for the weather conditions in past years. The results will help you decide how hot, cold, wet, or windy it might be!

Date:

Astronomy

Feb. 11, 2012 Rise Set
Actual Time 6:47 AM EST 5:11 PM EST
Civil Twilight 6:18 AM EST 5:40 PM EST
Nautical Twilight 5:45 AM EST 6:13 PM EST
Astronomical Twilight 5:12 AM EST 6:46 PM EST
Moon 10:03 PM EST (2/11) 8:21 AM EST (2/11)
Length of Visible Light 11h 21m
Length of Day
10h 23m
Waning Gibbous, 82% of the Moon is Illuminated
Feb 11
Waning Gibbous
Feb 14
Last Quarter
Feb 21
New
Feb 29
First Quarter
Mar 8
Full

Hourly Weather History & Observations

Time (EST) Temp. Windchill Dew Point Humidity Pressure Visibility Wind Dir Wind Speed Gust Speed Precip Events Conditions
12:22 AM 37.4 °F 30.3 °F 30.2 °F 75% 29.87 in 10.0 mi SW 10.4 mph - 0.00 in Rain Light Rain
12:33 AM 37.4 °F 31.4 °F 30.2 °F 75% 29.87 in 10.0 mi SW 8.1 mph 19.6 mph 0.00 in   Overcast
12:56 AM 37.0 °F 31.6 °F 30.9 °F 79% 29.91 in 10.0 mi SW 6.9 mph - 0.00 in Rain Light Rain
1:34 AM 37.4 °F 33.8 °F 30.2 °F 75% 29.86 in 10.0 mi West 4.6 mph - 0.00 in Rain Light Rain
1:56 AM 36.0 °F 32.1 °F 30.0 °F 79% 29.90 in 10.0 mi SSW 4.6 mph - 0.00 in Rain Light Rain
2:56 AM 34.0 °F 27.2 °F 33.1 °F 96% 29.87 in 7.0 mi South 8.1 mph - 0.00 in Rain Light Rain
3:56 AM 34.0 °F 28.8 °F 32.0 °F 92% 29.86 in 7.0 mi SSW 5.8 mph - 0.00 in   Overcast
4:56 AM 33.1 °F - 32.0 °F 96% 29.86 in 7.0 mi Calm Calm - N/A   Overcast
5:56 AM 33.1 °F - 32.0 °F 96% 29.85 in 3.0 mi Calm Calm - 0.00 in Snow Light Snow
6:19 AM 33.8 °F 30.8 °F 30.2 °F 87% 29.80 in 3.0 mi WSW 3.5 mph - 0.00 in Snow Light Snow
6:56 AM 32.0 °F 28.7 °F 30.9 °F 96% 29.84 in 1.5 mi NW 3.5 mph - 0.00 in Snow Light Snow
7:56 AM 32.0 °F - 30.9 °F 96% 29.83 in 1.5 mi Calm Calm - 0.00 in Snow Light Snow
8:03 AM 32.0 °F 28.7 °F 30.2 °F 93% 29.78 in 2.5 mi NW 3.5 mph - 0.00 in Snow Light Snow
8:32 AM 32.0 °F 28.7 °F 30.2 °F 93% 29.77 in 2.5 mi NW 3.5 mph - 0.00 in   Overcast
8:51 AM 32.0 °F 28.7 °F 30.2 °F 93% 29.77 in 6.0 mi NW 3.5 mph - 0.00 in   Overcast
8:56 AM 32.0 °F 28.7 °F 30.0 °F 92% 29.81 in 6.0 mi NW 3.5 mph - 0.00 in   Overcast
9:04 AM 33.8 °F 30.8 °F 30.2 °F 87% 29.77 in 6.0 mi NW 3.5 mph - N/A   Overcast
9:56 AM 34.0 °F 29.8 °F 30.0 °F 85% 29.80 in 6.0 mi North 4.6 mph - 0.00 in Snow Light Snow
10:03 AM 33.8 °F 29.6 °F 30.2 °F 87% 29.75 in 4.0 mi North 4.6 mph - 0.00 in Snow Light Snow
10:56 AM 35.1 °F 31.0 °F 28.9 °F 78% 29.76 in 10.0 mi North 4.6 mph - 0.00 in   Mostly Cloudy
11:56 AM 36.0 °F 31.1 °F 27.0 °F 70% 29.72 in 10.0 mi NNE 5.8 mph - N/A   Overcast
12:56 PM 37.0 °F 34.5 °F 26.1 °F 65% 29.69 in 10.0 mi Variable 3.5 mph - N/A   Mostly Cloudy
1:56 PM 37.9 °F 31.5 °F 24.1 °F 57% 29.65 in 10.0 mi North 9.2 mph 17.3 mph N/A   Scattered Clouds
2:56 PM 39.9 °F 32.9 °F 23.0 °F 51% 29.62 in 10.0 mi ENE 11.5 mph - N/A   Mostly Cloudy
3:56 PM 37.9 °F 30.5 °F 24.1 °F 57% 29.60 in 10.0 mi NNE 11.5 mph 18.4 mph N/A   Mostly Cloudy
4:56 PM 35.1 °F 25.5 °F 24.1 °F 64% 29.59 in 10.0 mi North 15.0 mph 20.7 mph N/A   Mostly Cloudy
5:56 PM 34.0 °F 26.6 °F 24.1 °F 67% 29.59 in 10.0 mi NNE 9.2 mph - N/A   Overcast
6:56 PM 33.1 °F 26.9 °F 24.1 °F 70% 29.58 in 10.0 mi North 6.9 mph - N/A   Overcast
7:56 PM 33.1 °F 27.7 °F 24.1 °F 70% 29.58 in 10.0 mi North 5.8 mph - N/A   Overcast
8:56 PM 33.1 °F 23.9 °F 18.0 °F 54% 29.58 in 10.0 mi NNW 12.7 mph 23.0 mph N/A   Mostly Cloudy
9:56 PM 30.9 °F 19.8 °F 16.0 °F 54% 29.58 in 10.0 mi NW 16.1 mph 20.7 mph N/A   Mostly Cloudy
10:56 PM 28.9 °F 16.9 °F 14.0 °F 54% 29.59 in 10.0 mi NNW 17.3 mph 24.2 mph N/A   Clear
11:56 PM 27.0 °F 15.2 °F 12.0 °F 53% 29.60 in 10.0 mi NNW 15.0 mph 25.3 mph N/A   Clear